Temperature
15 15 15 15 15 15 15 15 15 15 15 15 15 15 15 15 15 15 15 15 15 15 15 15 15 15 15 15 15 15 15 15 15 15 15 15 15 15 15 15 15 15 15
15 15 15 15 15 15 15 15 15 15 15 15 15 14 14 14 15 15 15 15 14 14 15 14 15 15 15 15 15 14 14 14 14 14 14 14 15 15 15 15 15 15 14
15 15 15 15 15 15 15 15 15 15 15 14 14 14 14 14 14 14 14 14 14 14 14 14 14 14 14 14 14 14 14 14 14 14 14 14 14 14 14 14 14 14 14
14 14 14 14 14 14 14 14 14 14 14 14 14 14 14 14 14 14 14 14 14 14 14 14 14 14 14 14 14 14 14 14 14 14 14 14 14 14 14 14 14 14 14
14 14 14 14 14 14 14 14 14 14 14 14 14 14 14 14 14 14 14 14 14 14 14 14 14 14 14 13 13 13 14 14 14 14 14 14 14 14 14 14 14 14 14
14 14 14 14 14 14 14 14 14 14 14 14 14 14 13 13 13 13 13 13 13 13 13 13 13 13 13 13 13 13 13 13 13 13 13 13 13 13 13 13 13 13 14
14 14 14 14 14 14 14 14 14 13 13 13 13 13 13 13 13 13 13 13 13 13 13 13 13 13 13 13 13 13 13 13 13 13 13 13 13 13 13 13 13 13 13
14 14 14 14 14 13 13 13 13 13 13 13 13 13 13 13 13 13 13 13 13 13 13 13 13 13 13 13 13 13 13 13 13 13 13 13 13 13 13 13 13 13 13
14 14 14 14 13 13 13 13 13 13 13 13 13 13 13 13 13 13 13 13 13 13 13 13 13 13 13 13 13 13 13 13 13 13 13 13 12 12 12 12 13 13 13
14 14 14 13 13 13 13 13 13 13 13 13 13 13 12 12 12 12 12 12 13 13 13 12 12 13 12 12 12 12 12 13 13 13 12 12 12 12 12 12 12 13 12
14 14 13 13 13 13 13 13 13 12 12 12 12 12 12 12 12 12 12 12 12 12 12 12 12 12 12 12 12 12 12 12 12 12 12 12 12 12 12 12 12 12 12
14 14 13 13 13 13 13 13 13 12 12 12 12 12 12 12 12 12 12 12 12 12 12 12 12 12 12 12 12 12 12 12 12 12 12 12 12 12 12 12 12 12 12
14 14 13 13 13 13 13 12 12 12 12 12 12 12 12 12 12 12 12 12 12 12 12 12 12 12 12 12 12 11 11 12 12 12 12 12 12 12 12 12 11 11 12
13 13 13 13 13 13 12 12 12 12 12 12 12 12 12 12 12 12 12 12 11 11 12 12 12 12 12 12 11 11 11 11 11 11 11 11 11 11 11 11 11 11 11
13 13 13 13 13 12 12 12 12 12 12 12 12 12 12 12 12 12 11 11 11 11 11 11 11 12 11 11 11 11 11 11 11 11 11 11 11 11 11 11 11 11 11
13 13 13 13 12 12 12 12 12 12 12 12 12 12 12 12 12 11 11 11 11 11 11 11 11 11 11 11 11 11 11 11 11 11 11 11 11 11 11 11 11 11 11
13 13 12 12 12 12 12 12 12 12 12 12 12 11 11 11 11 11 11 11 11 11 11 11 11 11 11 11 11 11 10 10 10 10 10 10 10 10 10 10 10 10 10
12 12 12 12 12 12 12 12 11 11 11 11 11 11 11 11 11 11 11 11 11 11 10 11 11 11 11 10 10 10 10 10 10 10 10 10 10 10 10 10 10 10 10
12 12 12 12 11 11 11 11 11 11 11 11 11 11 11 11 11 11 11 11 11 10 10 10 10 10 10 10 10 10 10 10 10 10 10 10 10 10 10 10 10 10 10
12 11 11 11 11 11 11 11 11 11 11 11 11 11 11 11 11 10 10 10 10 10 10 10 10 10 10 10 10 10 10 10 10 10 10 10 10 10 10 10 10 10 10
11 11 11 11 11 11 10 10 10 10 10 10 10 10 10 10 10 10 10 10 10 10 10 10 10 10 10 10 10 10 10 10 10 10 10 10 10 10 9 9 9 9 9
11 11 10 10 10 10 10 10 10 10 10 10 10 10 10 10 10 10 10 10 10 9 9 9 9 9 9 9 10 9 9 9 9 9 9 9 9 9 9 9 9 9 9
10 10 10 10 10 10 10 9 9 9 9 9 9 10 9 9 9 9 9 9 9 9 9 9 9 9 9 9 9 9 9 9 9 9 9 9 9 9 9 9 8 8 8
10 10 10 10 10 9 9 9 9 9 9 9 9 9 9 9 9 9 9 9 9 9 9 9 8 9 9 9 9 9 9 9 8 8 8 8 9 8 8 8 8 8 8
10 9 9 9 9 9 9 9 8 8 8 8 8 8 8 8 8 8 8 8 8 8 8 8 8 8 8 8 8 8 8 8 8 8 8 8 8 8 8 8 8 7 7
9 9 9 9 9 9 9 8 8 8 8 8 8 8 8 8 8 8 8 8 8 8 8 8 8 8 8 7 7 7 7 7 7 7 8 7 7 7 7 7 7 7 7
Wind_Speed
3 3 4 5 5 6 5 5 5 5 6 6 7 6 6 6 6 7 6 8 9 9 9 8 8 8 8 7 8 8 10 10 10 10 10 9 9 8 8 8 8 8 7
3 3 3 3 4 5 5 4 4 4 4 5 6 6 5 5 6 7 7 8 9 9 10 9 8 8 8 7 7 8 10 10 10 10 10 9 9 9 9 8 8 7 7
3 3 3 3 3 4 5 5 5 5 4 5 5 5 5 5 6 6 7 7 7 8 9 9 9 10 10 8 9 10 10 10 9 10 10 10 10 9 8 8 7 7 7
3 3 3 2 3 4 4 3 3 4 4 4 3 3 4 4 5 5 6 6 7 7 8 9 9 10 11 11 11 10 9 9 8 9 9 9 8 8 8 8 8 8 8
3 3 2 2 3 3 3 3 3 3 3 3 3 3 4 4 4 4 5 6 6 7 7 8 9 9 9 9 9 9 9 9 8 8 8 8 8 8 8 7 7 7 8
2 3 2 2 3 3 2 3 3 3 2 2 3 4 4 3 3 4 4 5 6 6 6 6 7 7 8 7 7 8 8 8 8 8 8 7 8 7 7 7 7 7 7
2 3 2 2 2 2 2 2 2 3 2 2 2 3 3 3 3 3 3 3 4 5 6 6 6 6 5 7 7 7 8 8 7 7 7 7 7 7 7 7 7 7 7
2 2 3 2 2 2 2 2 2 2 1 2 2 2 3 4 3 3 3 3 3 4 4 5 5 5 5 5 6 6 7 7 7 6 6 6 6 7 7 7 6 7 6
2 2 2 2 2 2 2 1 1 2 1 2 1 2 2 2 3 3 3 3 3 3 3 3 4 3 3 4 4 5 5 6 6 6 6 5 5 5 6 6 6 6 6
1 2 2 2 2 1 1 1 1 1 2 0 1 1 1 2 1 2 3 3 3 2 3 2 3 3 3 3 3 4 5 5 5 5 5 5 4 5 5 5 5 5 5
0 1 2 2 2 1 1 1 1 1 1 2 1 1 1 1 1 2 2 4 3 2 2 2 2 2 3 2 3 3 4 4 4 4 5 5 5 4 4 4 5 5 5
1 1 1 2 2 1 1 1 1 2 1 1 2 2 2 2 2 2 2 2 3 3 3 2 2 2 2 2 2 4 3 3 3 3 4 5 5 4 4 5 5 5 5
1 2 1 1 1 2 2 2 1 1 2 2 2 2 2 2 2 3 2 2 2 3 3 2 2 2 2 1 2 3 3 3 3 3 3 3 4 4 4 4 5 5 5
2 2 1 1 1 2 2 1 1 1 1 2 2 2 2 2 2 3 3 3 1 2 2 3 2 2 2 2 2 2 2 3 3 2 2 3 3 4 4 4 4 5 5
2 1 1 1 1 1 1 1 1 1 1 2 2 2 2 2 2 2 3 3 3 2 3 3 2 2 2 2 2 1 1 2 2 3 2 2 3 3 3 3 3 4 4
1 1 1 1 0 0 1 1 1 1 1 2 1 1 2 2 2 2 2 2 3 4 3 3 3 2 2 1 1 1 1 1 2 2 2 2 2 2 2 2 2 3 3
1 1 1 1 1 1 1 1 1 1 2 2 1 2 3 2 2 2 2 2 2 3 4 3 2 1 1 1 2 1 1 1 1 2 1 1 2 2 2 2 2 2 2
1 1 1 1 1 1 1 1 2 2 2 2 2 2 3 2 2 2 2 2 2 3 4 3 2 1 2 1 1 1 1 1 1 2 3 2 2 2 3 2 1 1 2
2 1 1 1 2 2 2 2 2 2 2 3 3 3 3 2 3 2 2 3 2 2 3 3 2 1 1 1 0 1 1 1 2 2 3 2 2 2 3 2 2 2 2
2 2 2 2 2 2 2 1 1 2 2 2 3 3 3 3 4 3 3 3 3 2 2 2 2 2 2 1 1 1 1 1 1 2 2 2 2 3 3 2 2 2 2
2 2 2 2 2 1 2 1 2 2 2 2 2 2 2 2 3 3 2 2 3 2 2 2 2 2 2 1 2 2 2 1 2 1 1 2 1 2 2 3 2 2 2
2 1 2 2 2 2 3 3 2 1 1 1 2 3 3 2 3 3 3 3 3 3 4 3 3 3 4 4 3 3 2 1 2 1 1 2 1 2 2 2 2 2 2
3 2 2 2 2 4 3 2 2 1 1 2 2 2 3 3 3 2 3 3 3 3 4 4 4 5 4 4 3 3 4 3 4 2 2 2 1 2 2 3 3 3 2
3 3 3 3 3 4 3 3 3 1 1 2 3 3 3 3 3 2 1 2 3 3 4 3 4 5 5 4 5 5 4 3 2 1 2 3 2 2 2 3 4 4 3
3 3 3 3 3 4 4 3 2 1 2 3 4 3 3 3 5 4 2 2 3 4 4 4 5 5 5 4 3 1 1 2 2 2 2 2 2 2 2 2 3 4 3
3 2 2 2 3 3 4 3 2 1 2 3 3 3 4 5 6 4 3 3 4 5 3 3 3 4 3 2 2 2 3 3 2 2 2 2 2 1 1 2 2 2 2
Wind_Direction
58 51 49 46 46 50 52 49 50 55 58 59 58 54 42 37 34 33 31 39 47 46 43 43 42 39 39 43 46 48 54 55 55 55 54 58 58 59 61 60 60 59 59
75 67 60 52 47 47 54 61 61 64 62 60 53 47 41 36 34 32 31 32 36 40 39 38 39 34 35 44 54 56 56 55 54 54 53 53 53 55 57 57 58 59 58
77 81 71 56 46 54 62 65 62 65 64 57 44 38 38 35 36 33 34 34 32 32 36 41 44 38 40 50 61 63 57 54 53 53 52 50 47 47 49 53 53 53 53
86 88 82 63 54 66 69 70 55 58 54 51 39 24 29 29 29 33 39 38 35 30 29 38 43 44 45 52 57 56 52 49 49 51 49 47 44 41 45 48 49 48 48
99 102 97 83 80 77 65 66 54 62 60 46 42 31 21 22 16 29 34 35 36 35 29 28 34 40 45 49 51 50 48 44 46 48 47 46 41 40 43 47 49 48 46
114 113 102 88 93 84 60 57 63 50 56 43 46 34 16 11 19 24 21 29 32 33 31 31 31 27 35 42 43 46 47 45 44 44 45 47 43 40 42 46 49 48 45
124 119 108 99 95 96 96 88 83 65 43 25 52 19 2 10 23 24 21 27 23 24 31 33 31 30 25 28 35 40 41 39 38 42 47 50 47 44 43 44 44 46 46
145 142 129 135 123 107 88 81 89 90 43 38 93 68 5 349 351 3 10 22 11 11 20 23 27 28 27 23 22 30 30 28 31 37 43 45 45 45 43 41 40 40 38
157 139 141 137 140 135 149 152 128 124 114 16 61 131 133 248 313 332 348 4 2 4 356 360 13 20 24 20 12 18 22 23 26 28 33 37 37 40 38 34 36 37 34
162 158 155 153 158 155 170 202 140 143 140 150 31 60 159 172 161 321 325 337 346 352 347 347 353 358 11 13 8 11 13 16 19 22 24 25 25 25 30 28 28 30 28
249 179 173 158 164 172 196 183 134 137 152 169 178 161 114 80 135 174 292 319 331 326 328 321 324 339 347 344 348 353 351 360 9 14 16 16 15 13 18 23 24 25 23
275 271 184 162 169 176 199 201 174 164 175 168 176 171 170 168 186 174 214 276 299 302 309 311 308 300 308 320 327 337 342 341 345 356 10 16 15 13 20 28 29 30 24
247 255 221 187 191 197 186 170 165 191 190 180 183 196 197 202 181 169 175 224 283 303 315 303 283 285 287 299 312 329 345 345 341 353 5 10 9 10 13 20 20 21 19
228 233 218 205 214 202 182 157 158 206 187 199 206 198 200 216 195 180 175 170 274 319 320 293 299 279 290 289 291 322 339 348 351 349 351 358 1 3 4 10 10 7 7
219 209 197 195 207 185 164 145 187 235 200 209 215 210 214 224 209 202 188 181 174 233 285 280 284 295 302 293 283 302 307 340 354 357 352 347 347 356 1 2 0 1 1
190 158 158 163 137 113 148 144 204 242 213 233 217 204 231 238 215 198 194 195 190 193 233 256 251 270 291 301 299 282 264 319 341 342 348 3 5 359 350 342 347 350 357
169 176 195 187 184 213 213 178 217 216 219 250 246 215 239 232 216 212 196 192 198 183 217 265 254 269 258 272 326 330 300 298 309 299 294 331 343 341 337 327 321 349 355
193 199 193 189 209 213 215 213 231 228 218 237 246 232 255 244 232 220 205 206 210 200 198 238 270 274 263 245 257 285 306 300 282 298 281 283 307 316 316 312 308 324 328
206 203 188 212 230 227 229 238 228 229 228 235 235 231 245 219 236 234 221 220 227 222 205 207 252 259 267 257 294 312 309 324 309 306 298 292 300 313 314 304 298 306 320
203 212 213 227 232 224 224 237 232 241 247 253 250 243 240 223 231 235 233 229 219 206 191 205 240 259 264 269 175 246 298 303 297 311 306 296 292 306 309 296 291 303 311
212 217 219 246 251 228 233 236 227 243 248 269 290 283 266 253 250 240 247 238 217 209 202 210 234 244 251 245 233 223 234 268 281 268 288 299 306 317 309 290 281 286 301
215 204 226 234 252 266 275 261 240 218 233 257 289 303 301 292 288 285 284 270 226 216 219 215 223 232 246 238 228 216 208 232 269 247 199 264 246 266 285 276 265 266 285
205 210 226 226 245 264 273 272 261 217 216 241 263 291 305 305 302 290 291 294 282 262 229 217 226 237 240 234 220 221 213 219 236 227 182 247 247 252 278 277 261 261 273
211 217 226 234 246 271 271 262 264 248 247 255 256 253 266 287 287 282 286 296 281 278 256 237 232 244 246 238 221 225 220 221 272 253 187 224 237 250 277 288 264 264 267
214 219 230 236 244 273 283 270 267 232 250 260 261 260 257 264 279 278 273 275 292 294 284 261 257 266 274 267 226 175 181 198 245 240 207 200 233 257 262 265 269 260 247
214 215 235 245 244 261 287 285 263 198 241 268 278 272 267 269 276 267 250 250 270 279 287 295 293 296 301 296 235 206 202 213 236 241 215 191 211 206 273 264 260 272 265
Height
1537 1537 1538 1538 1538 1537 1537 1537 1537 1537 1536 1536 1536 1535 1535 1535 1534 1534 1533 1533 1532 1531 1530 1529 1528 1526 1524 1523 1523 1523 1523 1523 1523 1523 1523 1524 1524 1524 1524 1524 1525 1525 1526
1538 1538 1538 1538 1538 1538 1538 1538 1537 1537 1537 1536 1536 1536 1535 1535 1535 1534 1534 1533 1532 1531 1530 1529 1527 1525 1521 1519 1520 1522 1523 1523 1523 1524 1524 1524 1524 1524 1524 1525 1525 1525 1526
1539 1539 1539 1539 1539 1539 1539 1538 1538 1538 1537 1537 1537 1536 1536 1536 1535 1535 1534 1533 1533 1532 1531 1529 1527 1525 1521 1519 1519 1522 1524 1524 1524 1525 1524 1524 1524 1525 1525 1525 1525 1525 1526
1539 1539 1539 1539 1540 1539 1539 1539 1538 1538 1538 1538 1537 1537 1536 1536 1535 1535 1534 1534 1533 1532 1531 1530 1529 1527 1524 1522 1522 1524 1525 1525 1525 1525 1525 1525 1525 1525 1525 1525 1525 1525 1525
1540 1540 1540 1540 1540 1540 1539 1539 1539 1539 1538 1538 1537 1537 1537 1536 1536 1535 1534 1534 1534 1533 1532 1531 1530 1529 1527 1526 1526 1526 1527 1527 1526 1526 1525 1525 1525 1525 1525 1525 1525 1525 1526
1539 1540 1540 1540 1540 1540 1539 1539 1539 1539 1539 1538 1538 1537 1537 1536 1536 1535 1535 1534 1534 1533 1533 1532 1531 1530 1529 1529 1529 1528 1528 1527 1527 1526 1526 1526 1526 1525 1525 1525 1525 1525 1526
1539 1539 1539 1539 1540 1539 1539 1539 1539 1539 1538 1538 1538 1537 1537 1537 1536 1535 1535 1534 1534 1533 1533 1532 1532 1531 1530 1530 1530 1529 1529 1528 1527 1527 1527 1526 1526 1526 1526 1526 1526 1526 1526
1538 1539 1539 1539 1539 1539 1539 1539 1539 1538 1538 1538 1538 1537 1537 1538 1536 1536 1535 1534 1534 1533 1533 1532 1532 1531 1531 1530 1530 1530 1529 1529 1528 1528 1527 1527 1527 1527 1526 1526 1526 1526 1526
1538 1538 1538 1538 1538 1538 1538 1538 1538 1538 1538 1538 1538 1538 1537 1536 1536 1536 1535 1534 1534 1533 1533 1532 1532 1531 1531 1530 1530 1530 1529 1529 1528 1528 1527 1527 1527 1527 1527 1527 1527 1527 1526
1537 1537 1537 1537 1537 1537 1537 1538 1538 1538 1537 1537 1537 1537 1537 1537 1536 1535 1535 1534 1533 1533 1532 1532 1531 1531 1530 1530 1530 1529 1529 1528 1528 1527 1527 1527 1527 1527 1526 1526 1526 1526 1526
1536 1536 1535 1535 1536 1536 1536 1536 1536 1536 1536 1536 1536 1536 1536 1536 1535 1535 1534 1533 1533 1532 1531 1531 1531 1530 1530 1529 1529 1528 1528 1527 1527 1527 1527 1526 1526 1526 1526 1526 1525 1525 1525
1534 1534 1534 1534 1534 1534 1534 1535 1535 1535 1535 1535 1535 1534 1534 1534 1534 1533 1533 1532 1531 1531 1530 1530 1530 1529 1529 1529 1528 1528 1527 1526 1526 1526 1526 1525 1525 1525 1525 1524 1524 1524 1524
1533 1532 1533 1532 1532 1532 1533 1533 1533 1533 1533 1533 1533 1533 1533 1532 1532 1532 1531 1530 1530 1529 1529 1529 1528 1528 1528 1527 1527 1526 1526 1526 1525 1525 1525 1524 1524 1524 1523 1523 1523 1523 1523
1531 1531 1531 1531 1531 1531 1531 1531 1531 1531 1531 1531 1531 1531 1530 1530 1530 1530 1530 1529 1528 1527 1527 1527 1526 1526 1526 1526 1525 1525 1525 1525 1524 1524 1523 1523 1523 1522 1522 1522 1521 1521 1521
1529 1530 1530 1530 1529 1529 1529 1529 1529 1529 1529 1529 1529 1528 1528 1528 1528 1528 1528 1528 1528 1526 1525 1524 1524 1524 1524 1524 1524 1523 1523 1523 1523 1522 1522 1522 1521 1521 1521 1520 1520 1520 1519
1528 1528 1527 1527 1527 1527 1527 1527 1527 1527 1526 1526 1526 1526 1526 1525 1525 1525 1525 1525 1524 1524 1522 1522 1522 1522 1522 1522 1522 1522 1522 1522 1521 1521 1521 1520 1520 1519 1519 1519 1518 1518 1518
1526 1526 1525 1525 1525 1525 1525 1525 1524 1524 1524 1524 1523 1523 1523 1523 1523 1522 1522 1522 1521 1521 1520 1519 1519 1520 1520 1520 1520 1520 1520 1519 1519 1519 1519 1518 1518 1518 1518 1517 1517 1516 1516
1523 1523 1523 1523 1523 1522 1522 1522 1521 1521 1521 1521 1521 1520 1520 1520 1520 1519 1519 1519 1518 1518 1517 1516 1516 1517 1517 1517 1517 1517 1517 1517 1517 1517 1517 1517 1516 1516 1516 1515 1515 1514 1514
1520 1520 1520 1520 1520 1520 1520 1519 1519 1519 1519 1518 1518 1518 1517 1517 1516 1516 1516 1515 1515 1515 1514 1514 1513 1514 1514 1514 1514 1514 1514 1514 1514 1514 1514 1514 1514 1514 1513 1513 1512 1512 1512
1517 1517 1518 1518 1517 1517 1517 1516 1516 1516 1516 1515 1515 1515 1514 1514 1513 1513 1513 1512 1512 1511 1511 1511 1510 1511 1511 1511 1511 1511 1511 1511 1511 1511 1511 1511 1511 1511 1511 1510 1510 1509 1509
1514 1515 1515 1515 1515 1514 1514 1514 1513 1513 1513 1512 1512 1512 1511 1511 1510 1510 1509 1509 1508 1508 1508 1507 1507 1507 1507 1508 1508 1508 1508 1508 1508 1508 1508 1508 1508 1508 1507 1507 1506 1506 1505
1511 1511 1511 1511 1511 1511 1511 1511 1510 1510 1509 1509 1509 1508 1508 1507 1507 1506 1506 1505 1505 1504 1504 1503 1503 1503 1503 1504 1504 1504 1504 1504 1503 1504 1504 1504 1504 1504 1504 1503 1503 1502 1502
1508 1508 1508 1508 1508 1508 1508 1508 1507 1507 1506 1506 1505 1505 1504 1504 1503 1503 1502 1501 1501 1500 1500 1500 1499 1499 1499 1499 1500 1499 1500 1500 1499 1500 1500 1499 1500 1500 1500 1499 1499 1499 1499
1505 1505 1505 1505 1505 1505 1505 1504 1504 1503 1502 1502 1501 1501 1501 1500 1499 1499 1497 1497 1496 1496 1496 1495 1495 1495 1495 1495 1495 1495 1495 1495 1495 1495 1496 1495 1495 1495 1495 1495 1495 1495 1495
1502 1502 1502 1502 1502 1502 1501 1501 1500 1499 1498 1498 1498 1497 1497 1496 1496 1495 1494 1493 1492 1491 1491 1491 1491 1490 1490 1490 1490 1490 1490 1490 1490 1490 1491 1491 1490 1490 1490 1490 1491 1491 1491
1498 1499 1499 1499 1498 1498 1498 1497 1496 1496 1495 1494 1494 1493 1493 1492 1492 1491 1490 1488 1487 1487 1487 1486 1486 1486 1486 1486 1486 1485 1485 1486 1485 1485 1486 1486 1486 1486 1486 1486 1486 1486 1486